Powrót do katalogu

STARLINK-1153

AktywnyŁącznośćVLEO
NORAD 45080·PAYLOAD·🇺🇸 United States

Wystrzelony Jan 29, 2020 z Cape Canaveral Space Force Station

Loading…

Następne Przeloty (najbliższe 24 godziny)

TLE

ŚwieżeSource: CelesTrak SupGP

Epoka: Sep 14, 2026, 13:25 UTC

1 45080C 20006AN  26257.55951389  .00051913  00000+0  10323-2 0  2578
2 45080  53.1527  90.2139 0003377 200.6450 259.4594 15.46326423    18

Śledź STARLINK-1153 w czasie rzeczywistym z AllMySat

Download on the App Store